Back to catalog

SL-6 R/B(2)

AliveHEO
NORAD 13298·ROCKET BODY·🇷🇺 Russia

Launched Jun 25, 1982 from Plesetsk Cosmodrome

Loading…

Next Passes (next 24 hours)

TLE

FreshSource: Space-Track

Epoch: Sep 14, 2026, 11:28 UTC

1 13298U 82064D   26257.47801183 -.00000667  00000-0  00000-0 0  9997
2 13298  67.2637  70.4208 6323372   5.7164 358.9402  2.03271957251438

Track SL-6 R/B(2) in real time with AllMySat

Download on the App Store